Location: Crocus Hill
(18.2167°N, 63.0667°W)
Time: 04:00:31
(UTC+00:00)

Intelsat 5-3 Rocket - Pass Details

Date: 26 January 2020
Orbit: 285 x 6153 km, 23.5° (Epoch: 16 February)

Event Time Altitude Azimuth Distance (km) Brightness Sun altitude
Exits shadow 08:44:48 58° 272° (W) 1,583 4.1 -28.7°
Maximum altitude 08:46:46 81° 197° (SSW) 1,634 4.5 -28.3°
Drops below altitude 10° 09:05:36 10° 112° (ESE) 6,984 8.9 -23.9°
Sets 09:13:40 0° 112° (ESE) 9,019 9.9 -22.0°
